Weather History for Freeport, IL

Change the Weather History Date:

Tuesday, December 3, 2013

  Actual Average Record
Temperature  
Mean Temperature 40 °F -  
Max Temperature 43 °F 36 °F 67 °F (2012)
Min Temperature 36 °F 18 °F -5 °F (1976)
Degree Days  
Heating Degree Days 26    
Moisture  
Dew Point 39 °F    
Average Humidity 95    
Maximum Humidity 96    
Minimum Humidity 93    
Precipitation  
Precipitation 0.02 in - - ()
Sea Level Pressure  
Sea Level Pressure 29.69 in    
Wind  
Wind Speed 6 mph (East)    
Max Wind Speed 12 mph    
Max Gust Speed -    
Averages and records for this station are not official NWS values.
T = Trace of Precipitation, MM = Missing Value Source: NWS Daily Summary

Daily Weather History Graph

Daily Weather History Graph

Search for Another Location

Airport:

Trip Planner

Search our weather history database for the weather conditions in past years. The results will help you decide how hot, cold, wet, or windy it might be!

Date:

Astronomy

Dec. 03, 2013 Rise Set
Actual Time 7:09 AM CST 4:26 PM CST
Civil Twilight 6:38 AM CST 4:57 PM CST
Nautical Twilight 6:03 AM CST 5:32 PM CST
Astronomical Twilight 5:29 AM CST 6:06 PM CST
Moon 7:38 AM CST (12/3) 5:30 PM CST (12/3)
Length of Visible Light 10h 19m
Length of Day
9h 16m
New Moon, 1% of the Moon is Illuminated
Dec 3
New Moon
Dec 9
First Quarter
Dec 17
Full
Dec 25
Last Quarter
Jan 1
New

Hourly Weather History & Observations

Time (CST) Temp. Windchill Dew Point Humidity Pressure Visibility Wind Dir Wind Speed Gust Speed Precip Events Conditions
12:15 AM 36.1 °F 29.3 °F 34.7 °F 94% 29.71 in 2.0 mi ESE 9.2 mph - N/A   Overcast
12:35 AM 36.1 °F 28.7 °F 34.7 °F 94% 29.71 in 2.0 mi East 10.4 mph - N/A   Overcast
12:55 AM 36.1 °F 29.9 °F 34.7 °F 94% 29.71 in 2.0 mi ESE 8.1 mph - N/A   Overcast
1:15 AM 36.1 °F 31.4 °F 34.7 °F 94% 29.70 in 1.8 mi East 5.8 mph - N/A   Overcast
1:35 AM 36.1 °F - 34.7 °F 94% 29.71 in 1.5 mi Calm Calm - N/A   Overcast
1:55 AM 36.1 °F 30.6 °F 34.7 °F 94% 29.69 in 1.5 mi ESE 6.9 mph - N/A   Overcast
2:15 AM 36.1 °F 29.9 °F 34.7 °F 94% 29.70 in 1.2 mi East 8.1 mph - N/A   Overcast
2:35 AM 36.1 °F 31.4 °F 34.7 °F 94% 29.71 in 1.5 mi East 5.8 mph - N/A   Overcast
2:55 AM 36.3 °F 31.6 °F 34.7 °F 94% 29.69 in 1.2 mi East 5.8 mph - N/A   Overcast
3:15 AM 36.7 °F 30.5 °F 35.1 °F 94% 29.69 in 1.2 mi ESE 8.1 mph - N/A   Overcast
3:35 AM 37.9 °F 34.4 °F 36.5 °F 95% 29.69 in 1.5 mi ESE 4.6 mph - N/A   Overcast
3:55 AM 38.7 °F 35.2 °F 37.2 °F 95% 29.69 in 1.2 mi ESE 4.6 mph - N/A   Overcast
4:15 AM 37.4 °F 34.9 °F 36.1 °F 95% 29.68 in 1.2 mi ESE 3.5 mph - N/A   Overcast
4:35 AM 38.7 °F 35.2 °F 37.4 °F 95% 29.68 in 1.2 mi ESE 4.6 mph - N/A   Overcast
4:55 AM 38.7 °F - 37.4 °F 95% 29.69 in 0.8 mi Calm Calm - N/A   Overcast
5:15 AM 38.7 °F 32.9 °F 37.4 °F 95% 29.69 in 0.8 mi SE 8.1 mph - N/A Rain Light Rain
5:35 AM 38.7 °F 31.4 °F 37.4 °F 95% 29.66 in 0.5 mi SSE 11.5 mph - N/A Fog Fog
5:55 AM 38.7 °F 33.6 °F 37.4 °F 95% 29.68 in 0.5 mi SE 6.9 mph - N/A Fog Fog
6:15 AM 38.7 °F 35.2 °F 37.4 °F 95% 29.69 in 0.5 mi ENE 4.6 mph - N/A Fog Fog
6:35 AM 38.7 °F 34.3 °F 37.4 °F 95% 29.69 in 0.2 mi NE 5.8 mph - N/A Fog Fog
6:55 AM 38.7 °F 36.3 °F 37.4 °F 95% 29.70 in 0.2 mi East 3.5 mph - N/A Fog Fog
7:15 AM 38.7 °F 35.2 °F 37.4 °F 95% 29.69 in 0.2 mi East 4.6 mph - N/A Fog Fog
7:35 AM 38.7 °F 33.6 °F 37.4 °F 95% 29.69 in 0.2 mi East 6.9 mph - N/A Fog Fog
7:55 AM 38.7 °F 31.8 °F 37.4 °F 95% 29.67 in 0.2 mi East 10.4 mph - N/A Fog Fog
8:15 AM 38.7 °F 31.8 °F 37.4 °F 95% 29.66 in 0.2 mi ESE 10.4 mph - N/A Fog Fog
8:35 AM 38.7 °F 34.3 °F 37.4 °F 95% 29.69 in 0.2 mi SE 5.8 mph - N/A Fog Fog
8:55 AM 38.7 °F 33.6 °F 37.4 °F 95% 29.70 in 0.2 mi SE 6.9 mph - N/A Fog Fog
9:15 AM 38.7 °F 33.6 °F 37.4 °F 95% 29.69 in 0.2 mi ESE 6.9 mph - N/A Fog Fog
9:35 AM 38.7 °F 34.3 °F 37.4 °F 95% 29.69 in 0.2 mi ESE 5.8 mph - 0.01 in Fog Fog
9:55 AM 38.7 °F 33.6 °F 37.4 °F 95% 29.69 in 0.2 mi East 6.9 mph - 0.01 in   Light Drizzle
10:15 AM 38.7 °F 33.6 °F 37.4 °F 95% 29.69 in 0.2 mi East 6.9 mph - N/A Fog Fog
10:35 AM 39.9 °F 35.1 °F 38.5 °F 95% 29.69 in 0.2 mi East 6.9 mph - N/A Fog Fog
10:55 AM 40.1 °F 35.3 °F 38.7 °F 95% 29.69 in 0.2 mi ESE 6.9 mph - N/A Fog Fog
11:15 AM 41.2 °F 36.0 °F 40.1 °F 96% 29.68 in 0.2 mi ESE 8.1 mph - N/A Fog Fog
11:35 AM 41.2 °F 37.3 °F 40.1 °F 96% 29.68 in 0.2 mi East 5.8 mph - N/A Fog Fog
11:55 AM 41.2 °F 37.3 °F 40.1 °F 96% 29.68 in 0.2 mi East 5.8 mph - N/A Fog Fog
12:15 PM 41.2 °F 39.2 °F 40.1 °F 96% 29.69 in 0.2 mi ENE 3.5 mph - N/A Fog Fog
12:35 PM 41.2 °F - 40.1 °F 96% 29.69 in 0.2 mi Calm Calm - N/A Fog Fog
12:55 PM 41.2 °F - 40.1 °F 96% 29.69 in 0.2 mi Calm Calm - N/A Fog Fog
1:15 PM 41.2 °F 39.2 °F 40.1 °F 96% 29.69 in 0.2 mi East 3.5 mph - N/A Fog Fog
1:35 PM 42.1 °F 38.4 °F 40.6 °F 95% 29.68 in 0.2 mi East 5.8 mph - N/A Fog Fog
1:55 PM 43.7 °F 41.1 °F 42.4 °F 95% 29.68 in 0.2 mi ESE 4.6 mph - N/A Fog Fog
2:15 PM 43.7 °F 41.1 °F 42.4 °F 95% 29.67 in 0.2 mi East 4.6 mph - N/A Fog Fog
2:35 PM 43.7 °F 39.1 °F 42.4 °F 95% 29.67 in 0.2 mi ESE 8.1 mph - N/A Rain Light Rain
2:55 PM 43.7 °F 40.3 °F 42.4 °F 95% 29.67 in 0.2 mi East 5.8 mph - N/A Rain Light Rain
3:15 PM 43.7 °F 41.1 °F 42.4 °F 95% 29.67 in 0.2 mi East 4.6 mph - N/A Rain Light Rain
3:35 PM 43.7 °F 40.3 °F 42.4 °F 95% 29.67 in 0.2 mi East 5.8 mph - N/A Rain Rain
3:55 PM 43.0 °F 40.3 °F 41.5 °F 95% 29.67 in 0.2 mi ENE 4.6 mph - N/A Rain Light Rain
4:15 PM 41.9 °F 37.5 °F 40.6 °F 95% 29.66 in 0.2 mi ENE 6.9 mph - 0.01 in   Unknown
4:35 PM 41.5 °F 37.1 °F 40.3 °F 95% 29.66 in 0.2 mi East 6.9 mph - 0.01 in   Unknown
4:55 PM 41.4 °F 36.8 °F 40.1 °F 95% 29.66 in 0.2 mi East 6.9 mph - 0.01 in Fog Fog
5:15 PM 41.2 °F 38.2 °F 40.1 °F 96% 29.67 in 0.5 mi East 4.6 mph - N/A Fog Fog
5:35 PM 41.4 °F 37.6 °F 40.1 °F 95% 29.68 in 0.2 mi ESE 5.8 mph - N/A Fog Fog
5:55 PM 41.2 °F 38.2 °F 40.1 °F 96% 29.70 in 0.2 mi SE 4.6 mph - N/A Fog Fog
6:15 PM 41.2 °F 36.0 °F 40.1 °F 96% 29.69 in 0.2 mi ESE 8.1 mph - N/A Fog Fog
6:35 PM 41.9 °F 35.9 °F 40.5 °F 95% 29.69 in 0.2 mi ESE 10.4 mph - N/A Fog Fog
6:55 PM 41.5 °F 38.6 °F 40.3 °F 95% 29.71 in 0.2 mi SE 4.6 mph - N/A Fog Fog
7:15 PM 41.5 °F 37.8 °F 40.3 °F 95% 29.71 in 0.2 mi SE 5.8 mph - N/A Fog Fog
7:35 PM 41.2 °F 36.6 °F 40.1 °F 96% 29.70 in 0.2 mi ESE 6.9 mph - N/A Fog Fog
7:55 PM 41.9 °F 35.9 °F 40.6 °F 95% 29.70 in 0.5 mi ESE 10.4 mph - N/A Fog Fog
8:15 PM 43.7 °F 38.6 °F 42.4 °F 95% 29.69 in 0.8 mi SE 9.2 mph - N/A   Overcast
8:35 PM 43.7 °F 41.1 °F 42.4 °F 95% 29.70 in 1.2 mi SE 4.6 mph - N/A   Overcast
8:55 PM 43.7 °F - 42.4 °F 95% 29.71 in 1.0 mi Calm Calm - N/A   Overcast
9:15 PM 43.7 °F 42.1 °F 42.4 °F 95% 29.70 in 0.5 mi ENE 3.5 mph - N/A Fog Fog
9:35 PM 43.7 °F 42.1 °F 42.4 °F 95% 29.71 in 0.5 mi East 3.5 mph - N/A Fog Fog
9:55 PM 42.3 °F 40.5 °F 40.8 °F 95% 29.71 in 0.2 mi ENE 3.5 mph - N/A Fog Fog
10:15 PM 43.7 °F 42.1 °F 42.4 °F 95% 29.71 in 0.2 mi ENE 3.5 mph - N/A Fog Fog
10:35 PM 43.5 °F 41.9 °F 42.3 °F 95% 29.70 in 0.2 mi ENE 3.5 mph - N/A Fog Fog
10:55 PM 43.5 °F 39.4 °F 42.1 °F 95% 29.70 in 0.2 mi East 6.9 mph - N/A Fog Fog
11:15 PM 43.3 °F 40.7 °F 42.1 °F 95% 29.70 in 0.2 mi ENE 4.6 mph - N/A Fog Fog
11:29 PM 42.8 °F 39.3 °F 41.0 °F 93% 29.70 in 0.2 mi East 5.8 mph - N/A Fog Fog
11:35 PM 41.9 °F 38.2 °F 40.6 °F 95% 29.70 in 0.2 mi East 5.8 mph - N/A Fog Fog
11:55 PM 41.9 °F 40.0 °F 40.6 °F 95% 29.71 in 0.2 mi East 3.5 mph - N/A Fog Fog